This demonstration page uses our WeatherBlox Daily Observations layout. Learn more.

Left ArrowRight Arrow

36.19886, -115.1175

Hourly Observations for August 3, 2021

Temp ( °F °C ) Dew Point ( °F °C ) Humidity (%) Winds ( mph kmh ) Pressure ( in mb ) Visibility ( mi km ) Precip ( " mm )
12:53 am 00:53 Clear 91 32.8 55 12.8 30 30 WNW 3 6 29.91 1013 10 16 N/A
1:53 am 01:53 Clear 89 31.7 54 12.2 30 30 WNW 5 7 29.90 1013 10 16 N/A
2:53 am 02:53 Clear 90 32.2 53 11.7 28 28 W 3 6 29.91 1013 10 16 N/A
3:53 am 03:53 Clear 90 32.2 50 10 25 25 NW 8 13 29.91 1013 10 16 N/A
4:53 am 04:53 Clear 87 30.6 53 11.7 31 31 S 5 7 29.93 1014 10 16 N/A
5:53 am 05:53 Sunny 87 30.6 53 11.7 31 31 W 3 6 29.95 1014 10 16 N/A
6:53 am 06:53 Sunny 88 31.1 53 11.7 30 30 NNW 5 7 29.96 1015 10 16 N/A
7:53 am 07:53 Sunny 93 33.9 52 11.1 25 25 N N/A 29.98 1015 10 16 N/A
8:53 am 08:53 Sunny 97 36.1 52 11.1 22 22 SSE 5 7 29.98 1015 10 16 N/A
9:53 am 09:53 Sunny 99 37.2 50 10 19 19 SE 3 6 29.97 1015 10 16 N/A
10:53 am 10:53 Sunny 102 38.9 51 10.6 18 18 VRB 5 7 29.96 1015 10 16 N/A
11:53 am 11:53 Sunny 104 40 49 9.4 16 16 N N/A 29.94 1014 10 16 N/A
12:53 pm 12:53 Sunny 106 41.1 48 8.9 14 14 VRB 3 6 29.92 1013 10 16 N/A
1:53 pm 13:53 Sunny 107 41.7 46 7.8 13 13 SSE 5 7 29.90 1013 10 16 N/A
2:53 pm 14:53 Sunny 108 42.2 45 7.2 12 12 undefined N/A 29.88 1012 10 16 N/A
3:53 pm 15:53 Sunny 109 42.8 45 7.2 12 12 E 3 6 29.85 1011 10 16 N/A
4:53 pm 16:53 Sunny 108 42.2 44 6.7 12 12 SSW 5 7 29.84 1010 10 16 N/A
5:53 pm 17:53 Sunny 108 42.2 44 6.7 12 12 S 6 9 29.81 1010 10 16 N/A
6:53 pm 18:53 Sunny 107 41.7 44 6.7 12 12 N N/A 29.80 1009 10 16 N/A
7:53 pm 19:53 Clear 106 41.1 45 7.2 13 13 N N/A 29.80 1009 10 16 N/A
8:53 pm 20:53 Clear 104 40 46 7.8 14 14 S 6 9 29.81 1010 10 16 N/A
9:53 pm 21:53 Clear 101 38.3 48 8.9 17 17 W 6 9 29.82 1010 10 16 N/A
10:53 pm 22:53 Clear 97 36.1 50 10 20 20 NW 7 11 29.82 1010 10 16 N/A
11:53 pm 23:53 Clear 95 35 48 8.9 20 20 ESE 3 6 29.83 1010 10 16 N/A

Powered by AerisWeather